timestamp,wind_dir_avg,wind_spd_avg,wind_spd_max_dir,wind_spd_gust,battery_voltage,lat,long
2023-05-26 00:04:00+00:00,66.0,7.53,61.0,8.29,12.41,47.59359,-54.27349
2023-05-26 00:14:01+00:00,66.0,8.49,68.0,9.39,12.41,47.59359,-54.27349
2023-05-26 00:24:01+00:00,58.0,7.82,58.0,8.85,12.41,47.59359,-54.27349
2023-05-26 00:34:01+00:00,55.0,8.2,54.0,9.0,12.41,47.59359,-54.27349
2023-05-26 00:44:01+00:00,55.0,7.17,55.0,8.21,12.41,47.59359,-54.27349
2023-05-26 00:54:01+00:00,56.0,7.78,55.0,8.38,12.41,47.59359,-54.27349
2023-05-26 01:04:01+00:00,52.0,8.14,51.0,8.85,12.41,47.59359,-54.27349
2023-05-26 01:14:00+00:00,50.0,9.44,49.0,10.19,12.33,47.59359,-54.27349
2023-05-26 01:24:00+00:00,52.0,8.91,52.0,9.93,12.33,47.59359,-54.27349
2023-05-26 01:34:00+00:00,49.0,9.29,50.0,10.33,12.33,47.59359,-54.27349
2023-05-26 01:44:00+00:00,48.0,9.5,45.0,10.51,12.33,47.59359,-54.27349
2023-05-26 01:54:00+00:00,48.0,9.42,45.0,10.73,12.33,47.59359,-54.27349
2023-05-26 02:04:00+00:00,51.0,9.11,54.0,10.22,12.33,47.59359,-54.27349
2023-05-26 02:14:00+00:00,52.0,9.34,50.0,10.58,12.33,47.59359,-54.27349
2023-05-26 02:24:00+00:00,54.0,8.46,51.0,9.27,12.33,47.59359,-54.27349
2023-05-26 02:34:00+00:00,51.0,8.68,51.0,9.76,12.33,47.59359,-54.27349
2023-05-26 02:44:00+00:00,50.0,9.45,45.0,11.23,12.33,47.59359,-54.27349
2023-05-26 02:54:00+00:00,53.0,9.2,51.0,10.15,12.33,47.59359,-54.27349
2023-05-26 03:04:00+00:00,57.0,9.53,55.0,10.63,12.33,47.59359,-54.27349
2023-05-26 03:14:00+00:00,59.0,9.48,59.0,11.03,12.33,47.59359,-54.27349
2023-05-26 03:24:00+00:00,58.0,8.92,56.0,9.8,12.33,47.59359,-54.27349
2023-05-26 03:34:00+00:00,58.0,8.67,58.0,9.89,12.33,47.59359,-54.27349
2023-05-26 03:44:00+00:00,61.0,9.83,67.0,13.27,12.33,47.59359,-54.27349
2023-05-26 03:54:00+00:00,59.0,9.77,69.0,14.46,12.33,47.59359,-54.27349
2023-05-26 04:04:00+00:00,63.0,9.09,65.0,12.18,12.33,47.59359,-54.27349
2023-05-26 04:14:01+00:00,58.0,9.43,65.0,11.08,12.25,47.59359,-54.27349
2023-05-26 04:24:01+00:00,64.0,8.83,74.0,11.64,12.25,47.59359,-54.27349
2023-05-26 04:34:01+00:00,66.0,8.78,78.0,13.06,12.25,47.59359,-54.27349
2023-05-26 04:44:01+00:00,68.0,10.61,75.0,14.29,12.25,47.59359,-54.27349
2023-05-26 04:54:01+00:00,65.0,8.57,67.0,9.62,12.25,47.59359,-54.27349
2023-05-26 05:04:01+00:00,62.0,8.88,68.0,12.04,12.25,47.59359,-54.27349
2023-05-26 05:14:01+00:00,64.0,9.8,69.0,11.85,12.25,47.59359,-54.27349
2023-05-26 05:24:01+00:00,66.0,9.21,64.0,12.47,12.25,47.59359,-54.27349
2023-05-26 05:34:01+00:00,64.0,8.81,63.0,10.95,12.25,47.59359,-54.27349
2023-05-26 05:44:01+00:00,60.0,9.05,73.0,10.99,12.25,47.59359,-54.27349
2023-05-26 05:54:01+00:00,64.0,9.36,66.0,12.2,12.25,47.59359,-54.27349
2023-05-26 06:04:01+00:00,60.0,10.0,63.0,12.08,12.25,47.59359,-54.27349
2023-05-26 06:14:00+00:00,59.0,11.9,60.0,13.83,12.17,47.59359,-54.27349
2023-05-26 06:24:00+00:00,59.0,13.17,59.0,14.73,12.17,47.59359,-54.27349
2023-05-26 06:34:00+00:00,57.0,13.07,57.0,14.73,12.17,47.59359,-54.27349
2023-05-26 06:44:00+00:00,57.0,12.27,59.0,14.22,12.17,47.59359,-54.27349
2023-05-26 06:54:00+00:00,66.0,13.08,65.0,14.38,12.17,47.59359,-54.27349
2023-05-26 07:04:00+00:00,63.0,11.78,63.0,14.71,12.17,47.59359,-54.27349
2023-05-26 07:14:00+00:00,66.0,11.28,62.0,14.55,12.17,47.59359,-54.27349
2023-05-26 07:24:00+00:00,70.0,12.43,70.0,14.34,12.17,47.59359,-54.27349
2023-05-26 07:34:00+00:00,66.0,11.92,64.0,13.59,12.17,47.59359,-54.27349
2023-05-26 07:44:00+00:00,70.0,11.55,76.0,13.04,12.17,47.59359,-54.27349
2023-05-26 07:54:00+00:00,68.0,9.31,76.0,12.74,12.17,47.59359,-54.27349
2023-05-26 08:04:00+00:00,68.0,11.63,61.0,13.29,12.17,47.59359,-54.27349
2023-05-26 08:14:01+00:00,67.0,9.5,82.0,13.72,12.17,47.59359,-54.27349
2023-05-26 08:24:01+00:00,68.0,10.07,72.0,12.34,12.17,47.59359,-54.27349
2023-05-26 08:34:01+00:00,68.0,8.65,71.0,10.3,12.17,47.59359,-54.27349
2023-05-26 08:44:01+00:00,61.0,8.76,59.0,9.71,12.17,47.59359,-54.27349
2023-05-26 08:54:01+00:00,63.0,8.89,57.0,10.75,12.17,47.59359,-54.27349
2023-05-26 09:04:01+00:00,61.0,8.68,55.0,9.86,12.17,47.59359,-54.27349
2023-05-26 09:14:01+00:00,65.0,8.69,70.0,10.48,12.17,47.59359,-54.27349
2023-05-26 09:24:01+00:00,65.0,9.47,65.0,10.66,12.17,47.59359,-54.27349
2023-05-26 09:34:01+00:00,59.0,8.4,57.0,9.22,12.17,47.59359,-54.27349
2023-05-26 09:44:01+00:00,63.0,8.84,57.0,9.94,12.17,47.59359,-54.27349
2023-05-26 09:54:01+00:00,64.0,8.81,58.0,10.07,12.17,47.59359,-54.27349
2023-05-26 10:04:01+00:00,64.0,9.05,57.0,11.56,12.17,47.59359,-54.27349
2023-05-26 10:14:00+00:00,56.0,9.34,52.0,10.71,12.25,47.59359,-54.27349
2023-05-26 10:24:00+00:00,66.0,8.67,71.0,10.98,12.25,47.59359,-54.27349
2023-05-26 10:34:00+00:00,65.0,9.64,71.0,13.53,12.25,47.59359,-54.27349
2023-05-26 10:44:00+00:00,62.0,8.04,62.0,10.32,12.25,47.59359,-54.27349
2023-05-26 10:54:00+00:00,67.0,8.99,73.0,13.69,12.25,47.59359,-54.27349
2023-05-26 11:04:00+00:00,65.0,8.77,67.0,11.85,12.25,47.59359,-54.27349
2023-05-26 11:14:00+00:00,68.0,8.64,69.0,9.87,12.65,47.59359,-54.27349
2023-05-26 11:24:00+00:00,70.0,8.48,80.0,10.56,12.65,47.59359,-54.27349
2023-05-26 11:34:00+00:00,65.0,7.41,67.0,8.1,12.65,47.59359,-54.27349
2023-05-26 11:44:00+00:00,61.0,7.32,59.0,8.45,12.65,47.59359,-54.27349
2023-05-26 11:54:00+00:00,60.0,5.88,64.0,6.89,12.65,47.59359,-54.27349
2023-05-26 12:04:00+00:00,65.0,5.94,68.0,7.47,12.65,47.59359,-54.27349
2023-05-26 12:14:00+00:00,71.0,6.52,61.0,8.04,13.21,47.59359,-54.27349
2023-05-26 12:24:00+00:00,69.0,6.93,64.0,7.93,13.21,47.59359,-54.27349
2023-05-26 12:34:00+00:00,72.0,6.83,85.0,13.16,13.21,47.59359,-54.27349
2023-05-26 12:44:00+00:00,74.0,6.06,68.0,7.91,13.21,47.59359,-54.27349
2023-05-26 12:54:00+00:00,70.0,5.96,73.0,7.29,13.21,47.59359,-54.27349
2023-05-26 13:04:00+00:00,62.0,5.97,63.0,6.84,13.21,47.59359,-54.27349
2023-05-26 13:14:00+00:00,62.0,5.59,66.0,6.38,13.37,47.59359,-54.27349
2023-05-26 13:24:00+00:00,64.0,5.43,60.0,6.53,13.37,47.59359,-54.27349
2023-05-26 13:34:00+00:00,67.0,5.79,67.0,6.81,13.37,47.59359,-54.27349
2023-05-26 13:44:00+00:00,69.0,6.07,73.0,7.47,13.37,47.59359,-54.27349
2023-05-26 13:54:00+00:00,67.0,5.89,70.0,6.7,13.37,47.59359,-54.27349
2023-05-26 14:04:00+00:00,66.0,5.05,67.0,6.17,13.37,47.59359,-54.27349
2023-05-26 14:14:00+00:00,50.0,4.76,62.0,6.3,13.53,47.59359,-54.27349
2023-05-26 14:24:00+00:00,64.0,4.23,72.0,6.6,13.53,47.59359,-54.27349
2023-05-26 14:34:00+00:00,47.0,4.61,46.0,4.95,13.53,47.59359,-54.27349
2023-05-26 14:44:00+00:00,57.0,4.39,60.0,5.14,13.53,47.59359,-54.27349
2023-05-26 14:54:00+00:00,40.0,4.06,52.0,4.76,13.53,47.59359,-54.27349
2023-05-26 15:04:00+00:00,46.0,6.08,47.0,6.38,13.53,47.59359,-54.27349
2023-05-26 15:14:00+00:00,40.0,5.24,43.0,5.65,13.6,47.59359,-54.27349
2023-05-26 15:24:00+00:00,44.0,4.65,46.0,4.99,13.6,47.59359,-54.27349
2023-05-26 15:34:00+00:00,43.0,4.36,42.0,4.74,13.6,47.59359,-54.27349
2023-05-26 15:44:00+00:00,35.0,5.13,37.0,5.83,13.6,47.59359,-54.27349
2023-05-26 15:54:00+00:00,47.0,5.85,48.0,6.43,13.6,47.59359,-54.27349
2023-05-26 16:04:00+00:00,44.0,5.37,44.0,5.89,13.6,47.59359,-54.27349
2023-05-26 16:14:00+00:00,38.0,4.74,40.0,5.19,13.68,47.59359,-54.27349
2023-05-26 16:24:00+00:00,42.0,5.35,44.0,5.75,13.68,47.59359,-54.27349
2023-05-26 16:34:00+00:00,37.0,5.07,50.0,5.68,13.68,47.59359,-54.27349
2023-05-26 16:44:00+00:00,38.0,5.38,39.0,5.82,13.68,47.59359,-54.27349
2023-05-26 16:54:00+00:00,35.0,4.97,44.0,5.67,13.68,47.59359,-54.27349
2023-05-26 17:04:00+00:00,35.0,4.89,42.0,5.39,13.68,47.59359,-54.27349
2023-05-26 17:14:00+00:00,38.0,5.14,46.0,5.88,13.68,47.59359,-54.27349
2023-05-26 17:24:00+00:00,49.0,6.21,55.0,7.29,13.68,47.59359,-54.27349
2023-05-26 17:34:00+00:00,49.0,6.02,55.0,7.18,13.68,47.59359,-54.27349
2023-05-26 17:44:00+00:00,43.0,5.41,53.0,6.7,13.68,47.59359,-54.27349
2023-05-26 17:54:00+00:00,44.0,5.6,51.0,6.32,13.68,47.59359,-54.27349
2023-05-26 18:04:00+00:00,39.0,5.16,48.0,5.86,13.68,47.59359,-54.27349
2023-05-26 18:14:00+00:00,42.0,5.16,53.0,6.24,13.6,47.59359,-54.27349
2023-05-26 18:24:00+00:00,53.0,5.91,62.0,7.27,13.6,47.59359,-54.27349
2023-05-26 18:34:00+00:00,61.0,6.85,62.0,7.1,13.6,47.59359,-54.27349
2023-05-26 18:44:00+00:00,63.0,6.43,63.0,6.7,13.6,47.59359,-54.27349
2023-05-26 18:54:00+00:00,66.0,6.22,67.0,6.73,13.6,47.59359,-54.27349
2023-05-26 19:04:00+00:00,67.0,5.6,67.0,6.01,13.6,47.59359,-54.27349
2023-05-26 19:14:00+00:00,53.0,3.98,63.0,5.57,13.6,47.59359,-54.27349
2023-05-26 19:24:00+00:00,69.0,5.41,69.0,6.11,13.6,47.59359,-54.27349
2023-05-26 19:34:00+00:00,69.0,5.71,68.0,6.2,13.6,47.59359,-54.27349
2023-05-26 19:44:00+00:00,79.0,5.68,79.0,6.04,13.6,47.59359,-54.27349
2023-05-26 19:54:00+00:00,74.0,3.51,81.0,5.26,13.6,47.59359,-54.27349
2023-05-26 20:04:00+00:00,69.0,1.97,76.0,3.42,13.6,47.59359,-54.27349
2023-05-26 20:14:00+00:00,69.0,1.04,60.0,1.37,13.68,47.59359,-54.27349
2023-05-26 20:24:00+00:00,194.0,1.39,195.0,1.57,13.68,47.59359,-54.27349
2023-05-26 20:34:00+00:00,215.0,5.81,218.0,6.73,13.68,47.59359,-54.27349
2023-05-26 20:44:00+00:00,215.0,7.35,217.0,7.79,13.68,47.59359,-54.27349
2023-05-26 20:54:00+00:00,214.0,6.12,215.0,6.79,13.68,47.59359,-54.27349
2023-05-26 21:04:00+00:00,214.0,6.48,214.0,6.97,13.68,47.59359,-54.27349
2023-05-26 21:14:01+00:00,208.0,6.31,208.0,6.87,13.68,47.59359,-54.27349
2023-05-26 21:24:01+00:00,209.0,7.0,209.0,7.72,13.68,47.59359,-54.27349
2023-05-26 21:34:01+00:00,211.0,7.72,213.0,8.53,13.68,47.59359,-54.27349
2023-05-26 21:44:01+00:00,207.0,7.86,208.0,8.92,13.68,47.59359,-54.27349
2023-05-26 21:54:01+00:00,207.0,7.51,205.0,8.57,13.68,47.59359,-54.27349
2023-05-26 22:04:01+00:00,210.0,7.58,212.0,8.41,13.68,47.59359,-54.27349
2023-05-26 22:14:00+00:00,205.0,8.02,208.0,8.52,13.37,47.59359,-54.27349
2023-05-26 22:24:00+00:00,199.0,7.85,196.0,8.83,13.37,47.59359,-54.27349
2023-05-26 22:34:00+00:00,194.0,8.1,195.0,8.8,13.37,47.59359,-54.27349
2023-05-26 22:44:00+00:00,200.0,7.7,201.0,8.35,13.37,47.59359,-54.27349
2023-05-26 22:54:00+00:00,203.0,8.21,204.0,9.12,13.37,47.59359,-54.27349
2023-05-26 23:04:00+00:00,206.0,8.52,208.0,9.2,13.37,47.59359,-54.27349
2023-05-26 23:14:00+00:00,211.0,7.44,216.0,8.15,12.97,47.59359,-54.27349
2023-05-26 23:24:00+00:00,210.0,7.4,212.0,8.54,12.97,47.59359,-54.27349
2023-05-26 23:34:00+00:00,213.0,7.35,214.0,8.45,12.97,47.59359,-54.27349
2023-05-26 23:44:00+00:00,215.0,7.18,219.0,8.22,12.97,47.59359,-54.27349
2023-05-26 23:54:00+00:00,215.0,7.57,217.0,8.56,12.97,47.59359,-54.27349
